Location: Foligno
(42.9600°N, 12.7050°E)
Time: 05:40:19
(UTC+01:00)

ISS - Pass Details

Date: 12 November 2018
Orbit: 402 x 408 km, 51.6° (Epoch: 17 November)

Event Time Altitude Azimuth Distance (km) Brightness Sun altitude
Exits shadow 05:51:34 21° 296° (WNW) 976 -2.5 -12.3°
Maximum altitude 05:53:36 68° 216° (SW) 438 -3.8 -11.9°
Drops below altitude 10° 05:56:51 10° 133° (SE) 1,457 0.0 -11.3°
Sets 05:58:55 0° 131° (SE) 2,315 1.3 -10.9°
